| time (UTC) | temp F | wind direction | speed MPH | gust MPH | rain 1hr in | rain 24hr in | rain mn in | humidity % | barometer mb |
| 20260904152015 | 89 | 214 | 2.0 | 9.0 | 0.00 | 0.74 | 0.00 | 84 | 1014.4 |
| 20260904151533 | 89 | 162 | 3.0 | 9.0 | 0.00 | 0.74 | 0.00 | 86 | 1014.4 |
| 20260904151004 | 88 | 178 | 1.0 | 4.0 | 0.00 | 0.74 | 0.00 | 85 | 1014.3 |
| 20260904150511 | 88 | 298 | 1.0 | 5.0 | 0.00 | 0.74 | 0.00 | 84 | 1014.2 |
| 20260904150016 | 88 | 207 | 1.0 | 6.0 | 0.00 | 0.74 | 0.00 | 87 | 1014.2 |
| 20260904145513 | 88 | 161 | 2.0 | 6.0 | 0.00 | 0.74 | 0.00 | 88 | 1014.3 |
| 20260904145012 | 87 | 186 | 2.0 | 5.0 | 0.00 | 0.74 | 0.00 | 88 | 1014.3 |
| 20260904144527 | 86 | 93 | 1.0 | 4.0 | 0.00 | 0.74 | 0.00 | 88 | 1014.3 |
| 20260904144017 | 86 | 161 | 1.0 | 6.0 | 0.00 | 0.74 | 0.00 | 89 | 1014.3 |
| 20260904143515 | 86 | 171 | 1.0 | 6.0 | 0.00 | 0.74 | 0.00 | 90 | 1014.3 |
| 20260904143009 | 85 | 126 | 2.0 | 9.0 | 0.00 | 0.74 | 0.00 | 91 | 1014.3 |
| 20260904142508 | 85 | 178 | 4.0 | 9.0 | 0.00 | 0.74 | 0.00 | 94 | 1014.3 |
| 20260904142012 | 84 | 26 | 1.0 | 7.0 | 0.00 | 0.74 | 0.00 | 94 | 1014.3 |
| 20260904141522 | 84 | 41 | 1.0 | 6.0 | 0.00 | 0.74 | 0.00 | 94 | 1014.2 |
| 20260904141012 | 83 | 63 | 2.0 | 5.0 | 0.00 | 0.74 | 0.00 | 95 | 1014.3 |
| 20260904140516 | 83 | 178 | 1.0 | 5.0 | 0.00 | 0.74 | 0.00 | 95 | 1014.3 |
| 20260904140030 | 83 | 178 | 1.0 | 5.0 | 0.00 | 0.74 | 0.00 | 95 | 1014.3 |
| 20260904135519 | 82 | 221 | 2.0 | 7.0 | 0.00 | 0.74 | 0.00 | 96 | 1014.3 |
| 20260904135011 | 82 | 157 | 1.0 | 7.0 | 0.00 | 0.74 | 0.00 | 96 | 1014.3 |
| 20260904134513 | 82 | 216 | 2.0 | 6.0 | 0.00 | 0.74 | 0.00 | 96 | 1014.3 |
| 20260904134009 | 82 | 153 | 1.0 | 4.0 | 0.00 | 0.74 | 0.00 | 96 | 1014.2 |
| 20260904133514 | 82 | 119 | 1.0 | 6.0 | 0.00 | 0.74 | 0.00 | 96 | 1014.2 |
| 20260904133027 | 81 | 136 | 1.0 | 8.0 | 0.00 | 0.74 | 0.00 | 96 | 1014.1 |
| 20260904132517 | 81 | 190 | 1.0 | 8.0 | 0.00 | 0.74 | 0.00 | 96 | 1014.1 |
| 20260904132018 | 81 | 238 | 2.0 | 6.0 | 0.00 | 0.74 | 0.00 | 97 | 1014.1 |
| 20260904131530 | 81 | 132 | 2.0 | 5.0 | 0.00 | 0.74 | 0.00 | 96 | 1014.0 |
| 20260904131008 | 80 | 183 | 1.0 | 5.0 | 0.00 | 0.74 | 0.00 | 96 | 1013.9 |
| 20260904130508 | 80 | 98 | 1.0 | 4.0 | 0.00 | 0.74 | 0.00 | 96 | 1013.9 |
| 20260904130018 | 80 | 115 | 1.0 | 2.0 | 0.00 | 0.74 | 0.00 | 96 | 1013.9 |
| 20260904125511 | 80 | 72 | 1.0 | 2.0 | 0.00 | 0.74 | 0.00 | 96 | 1013.8 |
| 20260904125019 | 79 | 34 | 0.0 | 2.0 | 0.00 | 0.74 | 0.00 | 96 | 1013.8 |
| 20260904124528 | 79 | 51 | 0.0 | 2.0 | 0.00 | 0.74 | 0.00 | 96 | 1013.8 |
| 20260904124016 | 79 | 153 | 0.0 | 2.0 | 0.00 | 0.74 | 0.00 | 96 | 1013.7 |
| 20260904123519 | 79 | 93 | 0.0 | 2.0 | 0.00 | 0.74 | 0.00 | 96 | 1013.6 |
| 20260904123010 | 79 | 93 | 0.0 | 2.0 | 0.00 | 0.74 | 0.00 | 96 | 1013.6 |
| 20260904122510 | 79 | 153 | 0.0 | 2.0 | 0.00 | 0.74 | 0.00 | 96 | 1013.5 |
| 20260904122012 | 79 | 93 | 1.0 | 2.0 | 0.00 | 0.74 | 0.00 | 96 | 1013.4 |
| 20260904121525 | 79 | 67 | 0.0 | 2.0 | 0.00 | 0.74 | 0.00 | 96 | 1013.4 |
| 20260904121019 | 79 | 93 | 0.0 | 1.0 | 0.00 | 0.74 | 0.00 | 96 | 1013.4 |
| 20260904120513 | 79 | 80 | 0.0 | 1.0 | 0.00 | 0.74 | 0.00 | 96 | 1013.3 |
| 20260904120035 | 79 | 51 | 0.0 | 1.0 | 0.00 | 0.74 | 0.00 | 96 | 1013.2 |
| 20260904115517 | 79 | 93 | 0.0 | 1.0 | 0.00 | 0.74 | 0.00 | 96 | 1013.3 |
| 20260904115008 | 79 | 51 | 0.0 | 2.0 | 0.00 | 0.74 | 0.00 | 96 | 1013.3 |
| 20260904114517 | 79 | 93 | 0.0 | 2.0 | 0.00 | 0.74 | 0.00 | 96 | 1013.2 |
| 20260904114010 | 79 | 67 | 0.0 | 2.0 | 0.00 | 0.74 | 0.00 | 96 | 1013.3 |
| 20260904113512 | 79 | 126 | 0.0 | 2.0 | 0.00 | 0.74 | 0.00 | 96 | 1013.3 |
| 20260904113030 | 79 | 126 | 0.0 | 1.0 | 0.00 | 0.74 | 0.00 | 95 | 1013.3 |
| 20260904112514 | 79 | 137 | 0.0 | 2.0 | 0.00 | 0.74 | 0.00 | 96 | 1013.2 |
| 20260904112019 | 79 | 153 | 0.0 | 2.0 | 0.00 | 0.74 | 0.00 | 96 | 1013.2 |
| 20260904111533 | 79 | 93 | 1.0 | 2.0 | 0.00 | 0.74 | 0.00 | 96 | 1013.2 |
| 20260904111009 | 79 | 67 | 0.0 | 2.0 | 0.00 | 0.74 | 0.00 | 96 | 1013.2 |
| 20260904110510 | 79 | 93 | 1.0 | 2.0 | 0.00 | 0.74 | 0.00 | 96 | 1013.1 |
| 20260904110024 | 79 | 93 | 0.0 | 2.0 | 0.00 | 0.74 | 0.00 | 96 | 1013.2 |
| 20260904105512 | 79 | 93 | 1.0 | 2.0 | 0.00 | 0.74 | 0.00 | 96 | 1013.1 |
| 20260904105013 | 79 | 93 | 1.0 | 2.0 | 0.00 | 0.74 | 0.00 | 95 | 1013.1 |
| 20260904104531 | 79 | 9 | 0.0 | 2.0 | 0.00 | 0.74 | 0.00 | 96 | 1013.1 |
| 20260904104019 | 79 | 51 | 0.0 | 2.0 | 0.00 | 0.74 | 0.00 | 95 | 1013.0 |
| 20260904103506 | 79 | 51 | 0.0 | 2.0 | 0.00 | 0.74 | 0.00 | 95 | 1013.0 |
| 20260904103012 | 79 | 93 | 0.0 | 2.0 | 0.00 | 0.74 | 0.00 | 95 | 1013.0 |
| 20260904102512 | 79 | 137 | 0.0 | 2.0 | 0.00 | 0.74 | 0.00 | 95 | 1012.9 |
| 20260904102014 | 79 | 126 | 1.0 | 2.0 | 0.00 | 0.74 | 0.00 | 95 | 1012.9 |
| 20260904101527 | 79 | 111 | 0.0 | 2.0 | 0.00 | 0.74 | 0.00 | 95 | 1012.8 |
| 20260904101016 | 79 | 93 | 0.0 | 2.0 | 0.00 | 0.74 | 0.00 | 95 | 1012.8 |
| 20260904100522 | 79 | 137 | 1.0 | 2.0 | 0.00 | 0.74 | 0.00 | 95 | 1012.8 |
| 20260904100008 | 79 | 51 | 0.0 | 2.0 | 0.00 | 0.74 | 0.00 | 95 | 1012.7 |
| 20260904095509 | 79 | 137 | 0.0 | 2.0 | 0.00 | 0.74 | 0.00 | 95 | 1012.7 |
| 20260904095010 | 79 | 119 | 0.0 | 2.0 | 0.00 | 0.74 | 0.00 | 95 | 1012.8 |
| 20260904094520 | 79 | 76 | 0.0 | 1.0 | 0.00 | 0.74 | 0.00 | 95 | 1012.8 |
| 20260904094014 | 79 | 51 | 0.0 | 1.0 | 0.00 | 0.74 | 0.00 | 95 | 1012.6 |
| 20260904093514 | 79 | 51 | 0.0 | 4.0 | 0.00 | 0.74 | 0.00 | 95 | 1012.5 |
| 20260904093051 | 79 | 146 | 0.0 | 4.0 | 0.00 | 0.74 | 0.00 | 95 | 1012.6 |
| 20260904092519 | 79 | 178 | 0.0 | 2.0 | 0.00 | 0.74 | 0.00 | 95 | 1012.6 |
| 20260904092004 | 79 | 67 | 0.0 | 2.0 | 0.00 | 0.74 | 0.00 | 95 | 1012.6 |
| 20260904091512 | 79 | 93 | 0.0 | 2.0 | 0.00 | 0.74 | 0.00 | 95 | 1012.6 |
| 20260904091011 | 79 | 93 | 1.0 | 2.0 | 0.00 | 0.74 | 0.00 | 95 | 1012.6 |
| 20260904090510 | 79 | 67 | 0.0 | 2.0 | 0.00 | 0.74 | 0.00 | 95 | 1012.5 |
| 20260904090023 | 79 | 93 | 1.0 | 2.0 | 0.00 | 0.74 | 0.00 | 95 | 1012.5 |
| 20260904085520 | 79 | 93 | 0.0 | 2.0 | 0.00 | 0.74 | 0.00 | 95 | 1012.6 |
| 20260904085015 | 79 | 67 | 0.0 | 1.0 | 0.00 | 0.74 | 0.00 | 95 | 1012.6 |
| 20260904084530 | 79 | 153 | 0.0 | 2.0 | 0.00 | 0.74 | 0.00 | 95 | 1012.6 |
| 20260904084003 | 79 | 161 | 0.0 | 2.0 | 0.00 | 0.74 | 0.00 | 95 | 1012.7 |
| 20260904083508 | 79 | 165 | 1.0 | 2.0 | 0.00 | 0.74 | 0.00 | 95 | 1012.7 |
| 20260904083013 | 79 | 93 | 0.0 | 1.0 | 0.00 | 0.74 | 0.00 | 95 | 1012.7 |
| 20260904082514 | 79 | 178 | 0.0 | 1.0 | 0.00 | 0.74 | 0.00 | 94 | 1012.8 |
| 20260904082013 | 80 | 51 | 0.0 | 2.0 | 0.00 | 0.74 | 0.00 | 94 | 1012.7 |
| 20260904081529 | 80 | 93 | 0.0 | 2.0 | 0.00 | 0.74 | 0.00 | 95 | 1012.8 |
| 20260904081016 | 80 | 93 | 0.0 | 1.0 | 0.00 | 0.74 | 0.00 | 94 | 1012.8 |
| 20260904080517 | 80 | 93 | 0.0 | 1.0 | 0.00 | 0.74 | 0.00 | 94 | 1012.8 |
| 20260904080010 | 80 | 51 | 0.0 | 1.0 | 0.00 | 0.74 | 0.00 | 94 | 1012.8 |
| 20260904075508 | 80 | 178 | 0.0 | 1.0 | 0.00 | 0.74 | 0.00 | 94 | 1012.9 |
| 20260904075008 | 80 | 119 | 0.0 | 2.0 | 0.00 | 0.74 | 0.00 | 94 | 1012.8 |
| 20260904074517 | 80 | 93 | 0.0 | 2.0 | 0.00 | 0.74 | 0.00 | 94 | 1012.9 |
| 20260904074011 | 80 | 93 | 0.0 | 2.0 | 0.00 | 0.74 | 0.00 | 94 | 1012.9 |
| 20260904073516 | 80 | 93 | 0.0 | 2.0 | 0.00 | 0.74 | 0.00 | 94 | 1013.0 |
| 20260904073047 | 80 | 93 | 0.0 | 2.0 | 0.00 | 0.74 | 0.00 | 94 | 1012.9 |
| 20260904072517 | 80 | 76 | 1.0 | 2.0 | 0.00 | 0.74 | 0.00 | 94 | 1013.0 |
| 20260904072006 | 80 | 165 | 0.0 | 4.0 | 0.00 | 0.74 | 0.00 | 94 | 1012.9 |
| 20260904071510 | 80 | 126 | 1.0 | 4.0 | 0.00 | 0.74 | 0.00 | 94 | 1013.0 |
| 20260904071010 | 80 | 137 | 0.0 | 4.0 | 0.00 | 0.74 | 0.00 | 94 | 1013.1 |
| 20260904070513 | 80 | 93 | 0.0 | 3.0 | 0.00 | 0.74 | 0.00 | 94 | 1013.1 |
| 20260904070023 | 80 | 146 | 0.0 | 3.0 | 0.00 | 0.74 | 0.00 | 94 | 1013.1 |
| 20260904065515 | 80 | 148 | 1.0 | 4.0 | 0.00 | 0.74 | 0.00 | 94 | 1013.1 |
| 20260904065014 | 80 | 178 | 0.0 | 4.0 | 0.00 | 0.74 | 0.00 | 94 | 1013.1 |
| 20260904064529 | 80 | 178 | 0.0 | 5.0 | 0.00 | 0.74 | 0.00 | 94 | 1013.1 |
| 20260904064008 | 80 | 165 | 0.0 | 5.0 | 0.00 | 0.74 | 0.00 | 94 | 1013.2 |
| 20260904063509 | 80 | 178 | 2.0 | 6.0 | 0.00 | 0.74 | 0.00 | 94 | 1013.2 |
| 20260904063018 | 80 | 150 | 2.0 | 6.0 | 0.00 | 0.74 | 0.00 | 94 | 1013.2 |
| 20260904062518 | 80 | 137 | 1.0 | 4.0 | 0.00 | 0.74 | 0.00 | 94 | 1013.2 |
| 20260904062013 | 80 | 178 | 2.0 | 4.0 | 0.00 | 0.74 | 0.00 | 94 | 1013.2 |
| 20260904061525 | 80 | 178 | 1.0 | 6.0 | 0.00 | 0.74 | 0.00 | 94 | 1013.1 |
| 20260904061014 | 80 | 170 | 2.0 | 6.0 | 0.00 | 0.74 | 0.00 | 94 | 1013.1 |
| 20260904060518 | 80 | 153 | 2.0 | 6.0 | 0.00 | 0.74 | 0.00 | 94 | 1013.1 |
| 20260904060011 | 80 | 146 | 3.0 | 6.0 | 0.00 | 0.74 | 0.00 | 94 | 1013.1 |
| 20260904055508 | 80 | 178 | 2.0 | 5.0 | 0.00 | 0.74 | 0.00 | 94 | 1013.0 |
| 20260904055013 | 80 | 193 | 2.0 | 7.0 | 0.00 | 0.74 | 0.00 | 94 | 1013.0 |
| 20260904054519 | 80 | 164 | 3.0 | 7.0 | 0.00 | 0.74 | 0.00 | 94 | 1013.1 |
| 20260904054018 | 80 | 152 | 2.0 | 5.0 | 0.00 | 0.74 | 0.00 | 94 | 1013.1 |
| 20260904053514 | 80 | 178 | 2.0 | 5.0 | 0.00 | 0.74 | 0.00 | 94 | 1013.1 |
| 20260904053033 | 80 | 194 | 2.0 | 5.0 | 0.00 | 0.74 | 0.00 | 94 | 1013.1 |
| 20260904052519 | 80 | 153 | 2.0 | 5.0 | 0.00 | 0.74 | 0.00 | 94 | 1013.1 |
| 20260904052008 | 80 | 148 | 1.0 | 4.0 | 0.00 | 0.74 | 0.00 | 94 | 1013.1 |
| 20260904051515 | 80 | 168 | 2.0 | 6.0 | 0.00 | 0.74 | 0.00 | 94 | 1013.1 |
| 20260904051012 | 80 | 139 | 2.0 | 6.0 | 0.00 | 0.74 | 0.00 | 94 | 1013.0 |
| 20260904050513 | 80 | 165 | 2.0 | 5.0 | 0.00 | 0.74 | 0.00 | 94 | 1013.0 |
| 20260904050024 | 80 | 196 | 1.0 | 6.0 | 0.00 | 0.74 | 0.00 | 94 | 1013.0 |
| 20260904045517 | 80 | 146 | 1.0 | 7.0 | 0.00 | 0.74 | 0.74 | 94 | 1013.0 |
| 20260904045017 | 80 | 178 | 2.0 | 8.0 | 0.00 | 0.74 | 0.74 | 94 | 1013.1 |
| 20260904044531 | 80 | 173 | 3.0 | 8.0 | 0.00 | 0.74 | 0.74 | 94 | 1013.1 |
| 20260904044008 | 80 | 211 | 2.0 | 8.0 | 0.00 | 0.74 | 0.74 | 94 | 1013.1 |
| 20260904043511 | 80 | 146 | 3.0 | 6.0 | 0.00 | 0.74 | 0.74 | 94 | 1013.1 |
| 20260904043017 | 80 | 188 | 3.0 | 7.0 | 0.00 | 0.74 | 0.74 | 94 | 1013.0 |
| 20260904042515 | 80 | 165 | 3.0 | 7.0 | 0.00 | 0.74 | 0.74 | 94 | 1013.0 |
| 20260904042016 | 80 | 173 | 3.0 | 7.0 | 0.00 | 0.74 | 0.74 | 95 | 1013.0 |
| 20260904041530 | 80 | 171 | 2.0 | 7.0 | 0.00 | 0.74 | 0.74 | 95 | 1013.0 |
| 20260904041017 | 80 | 171 | 2.0 | 7.0 | 0.00 | 0.74 | 0.74 | 95 | 1012.9 |
| 20260904040514 | 80 | 193 | 3.0 | 7.0 | 0.00 | 0.74 | 0.74 | 95 | 1013.0 |
| 20260904040011 | 80 | 202 | 2.0 | 7.0 | 0.00 | 0.74 | 0.74 | 95 | 1013.0 |
| 20260904035508 | 80 | 191 | 2.0 | 6.0 | 0.00 | 0.74 | 0.74 | 95 | 1013.0 |
| 20260904035014 | 80 | 178 | 2.0 | 6.0 | 0.00 | 0.74 | 0.74 | 95 | 1013.1 |
| 20260904034526 | 80 | 163 | 2.0 | 6.0 | 0.00 | 0.74 | 0.74 | 95 | 1013.1 |
| 20260904034017 | 80 | 189 | 2.0 | 6.0 | 0.00 | 0.74 | 0.74 | 95 | 1013.1 |
| 20260904033517 | 80 | 155 | 2.0 | 5.0 | 0.00 | 0.74 | 0.74 | 95 | 1013.1 |
| 20260904033037 | 80 | 193 | 1.0 | 5.0 | 0.00 | 0.74 | 0.74 | 95 | 1013.1 |
| 20260904032517 | 80 | 205 | 1.0 | 7.0 | 0.00 | 0.74 | 0.74 | 95 | 1013.1 |
| 20260904032008 | 80 | 178 | 1.0 | 7.0 | 0.00 | 0.74 | 0.74 | 95 | 1013.1 |
| 20260904031517 | 80 | 133 | 3.0 | 7.0 | 0.00 | 0.74 | 0.74 | 95 | 1013.1 |
| 20260904031011 | 80 | 171 | 3.0 | 7.0 | 0.00 | 0.74 | 0.74 | 95 | 1013.1 |
| 20260904030515 | 80 | 162 | 2.0 | 7.0 | 0.00 | 0.74 | 0.74 | 95 | 1013.1 |
| 20260904030028 | 79 | 150 | 2.0 | 6.0 | 0.00 | 0.74 | 0.74 | 95 | 1013.2 |
| 20260904025515 | 79 | 165 | 1.0 | 5.0 | 0.00 | 0.74 | 0.74 | 95 | 1013.2 |
| 20260904025014 | 79 | 265 | 1.0 | 3.0 | 0.00 | 0.74 | 0.74 | 95 | 1013.0 |
| 20260904024532 | 79 | 107 | 0.0 | 3.0 | 0.00 | 0.74 | 0.74 | 95 | 1013.0 |
| 20260904024018 | 79 | 93 | 0.0 | 5.0 | 0.00 | 0.74 | 0.74 | 95 | 1013.1 |
| 20260904023509 | 79 | 119 | 1.0 | 5.0 | 0.00 | 0.74 | 0.74 | 95 | 1012.9 |
| 20260904023020 | 79 | 119 | 1.0 | 5.0 | 0.00 | 0.74 | 0.74 | 95 | 1012.8 |
| 20260904022515 | 79 | 93 | 1.0 | 5.0 | 0.00 | 0.74 | 0.74 | 95 | 1012.7 |
| 20260904022017 | 79 | 178 | 0.0 | 5.0 | 0.00 | 0.74 | 0.74 | 95 | 1012.6 |
| 20260904021531 | 79 | 178 | 1.0 | 5.0 | 0.00 | 0.74 | 0.74 | 95 | 1012.6 |
| 20260904021019 | 79 | 137 | 1.0 | 5.0 | 0.00 | 0.74 | 0.74 | 95 | 1012.6 |
| 20260904020515 | 79 | 163 | 2.0 | 4.0 | 0.00 | 0.74 | 0.74 | 95 | 1012.5 |
| 20260904020033 | 79 | 93 | 1.0 | 4.0 | 0.00 | 0.74 | 0.74 | 95 | 1012.5 |
| 20260904015510 | 79 | 193 | 1.0 | 4.0 | 0.00 | 0.74 | 0.74 | 95 | 1012.5 |
| 20260904015013 | 79 | 126 | 0.0 | 2.0 | 0.00 | 0.74 | 0.74 | 95 | 1012.5 |
| 20260904014529 | 79 | 137 | 0.0 | 2.0 | 0.00 | 0.74 | 0.74 | 95 | 1012.4 |
| 20260904014016 | 79 | 61 | 0.0 | 2.0 | 0.00 | 0.74 | 0.74 | 95 | 1012.2 |
| 20260904013519 | 79 | 83 | 1.0 | 2.0 | 0.00 | 0.74 | 0.74 | 95 | 1012.2 |
| 20260904013034 | 79 | 129 | 1.0 | 2.0 | 0.00 | 0.74 | 0.74 | 95 | 1012.2 |
| 20260904012518 | 79 | 161 | 0.0 | 2.0 | 0.00 | 0.74 | 0.74 | 95 | 1012.3 |
| 20260904012019 | 79 | 137 | 0.0 | 2.0 | 0.00 | 0.74 | 0.74 | 95 | 1012.2 |
| 20260904011516 | 79 | 61 | 0.0 | 2.0 | 0.00 | 0.74 | 0.74 | 95 | 1012.1 |
| 20260904011014 | 79 | 93 | 0.0 | 2.0 | 0.00 | 0.74 | 0.74 | 95 | 1012.1 |
| 20260904010513 | 79 | 80 | 0.0 | 2.0 | 0.00 | 0.74 | 0.74 | 95 | 1012.0 |
| 20260904010031 | 79 | 119 | 0.0 | 2.0 | 0.00 | 0.74 | 0.74 | 95 | 1012.1 |
| 20260904005519 | 79 | 111 | 0.0 | 2.0 | 0.00 | 0.74 | 0.74 | 95 | 1012.1 |
| 20260904005016 | 79 | 83 | 1.0 | 2.0 | 0.00 | 0.74 | 0.74 | 95 | 1012.1 |
| 20260904004531 | 79 | 93 | 0.0 | 2.0 | 0.00 | 0.74 | 0.74 | 95 | 1012.1 |
| 20260904004020 | 79 | 41 | 1.0 | 4.0 | 0.00 | 0.74 | 0.74 | 95 | 1012.1 |
| 20260904003515 | 79 | 67 | 0.0 | 4.0 | 0.00 | 0.74 | 0.74 | 95 | 1012.1 |
| 20260904003025 | 79 | 132 | 1.0 | 4.0 | 0.00 | 0.74 | 0.74 | 95 | 1012.1 |
| 20260904002517 | 80 | 67 | 0.0 | 2.0 | 0.00 | 0.74 | 0.74 | 95 | 1012.1 |
| 20260904002017 | 80 | 51 | 1.0 | 3.0 | 0.00 | 0.74 | 0.74 | 95 | 1012.1 |
| 20260904001527 | 79 | 78 | 1.0 | 3.0 | 0.00 | 0.74 | 0.74 | 95 | 1012.1 |
| 20260904001005 | 80 | 123 | 1.0 | 3.0 | 0.00 | 0.74 | 0.74 | 95 | 1012.2 |
| 20260904000510 | 79 | 93 | 1.0 | 3.0 | 0.00 | 0.74 | 0.74 | 95 | 1012.2 |
| 20260904000015 | 80 | 93 | 1.0 | 2.0 | 0.00 | 0.74 | 0.74 | 95 | 1012.3 |
| 20260903235514 | 80 | 51 | 0.0 | 2.0 | 0.00 | 0.74 | 0.74 | 95 | 1012.2 |
| 20260903235012 | 79 | 51 | 1.0 | 3.0 | 0.00 | 0.74 | 0.74 | 95 | 1012.2 |
| 20260903234524 | 79 | 137 | 0.0 | 3.0 | 0.00 | 0.74 | 0.74 | 95 | 1012.2 |
| 20260903234015 | 79 | 51 | 0.0 | 2.0 | 0.00 | 0.74 | 0.74 | 95 | 1012.2 |
| 20260903233517 | 79 | 9 | 1.0 | 3.0 | 0.00 | 0.74 | 0.74 | 95 | 1012.1 |
| 20260903233006 | 79 | 107 | 1.0 | 3.0 | 0.00 | 0.74 | 0.74 | 95 | 1012.2 |
| 20260903232509 | 79 | 83 | 1.0 | 3.0 | 0.00 | 0.74 | 0.74 | 95 | 1012.3 |
| 20260903232009 | 79 | 76 | 0.0 | 3.0 | 0.00 | 0.74 | 0.74 | 95 | 1012.5 |
| 20260903231517 | 79 | 119 | 1.0 | 3.0 | 0.00 | 0.74 | 0.74 | 95 | 1012.5 |
| 20260903231018 | 79 | 41 | 0.0 | 3.0 | 0.00 | 0.74 | 0.74 | 95 | 1012.5 |
| 20260903230516 | 79 | 87 | 1.0 | 4.0 | 0.00 | 0.74 | 0.74 | 95 | 1012.4 |
| 20260903230046 | 79 | 103 | 1.0 | 4.0 | 0.00 | 0.74 | 0.74 | 95 | 1012.5 |
| 20260903225519 | 79 | 178 | 1.0 | 4.0 | 0.00 | 0.74 | 0.74 | 95 | 1012.6 |
| 20260903225006 | 79 | 9 | 0.0 | 5.0 | 0.00 | 0.74 | 0.74 | 95 | 1012.5 |
| 20260903224512 | 79 | 190 | 1.0 | 5.0 | 0.00 | 0.74 | 0.74 | 95 | 1012.5 |
| 20260903224010 | 79 | 109 | 1.0 | 4.0 | 0.00 | 0.74 | 0.74 | 95 | 1012.4 |
| 20260903223512 | 79 | 34 | 0.0 | 3.0 | 0.00 | 0.74 | 0.74 | 95 | 1012.4 |
| 20260903223025 | 79 | 76 | 1.0 | 4.0 | 0.00 | 0.74 | 0.74 | 95 | 1012.4 |
| 20260903222512 | 79 | 111 | 1.0 | 4.0 | 0.01 | 0.74 | 0.74 | 95 | 1012.3 |
| 20260903222016 | 79 | 115 | 1.0 | 3.0 | 0.01 | 0.74 | 0.74 | 95 | 1012.4 |
| 20260903221531 | 79 | 67 | 1.0 | 4.0 | 0.02 | 0.74 | 0.74 | 95 | 1012.5 |
| 20260903221006 | 79 | 105 | 1.0 | 4.0 | 0.02 | 0.74 | 0.74 | 95 | 1012.6 |
| 20260903220512 | 79 | 22 | 1.0 | 6.0 | 0.03 | 0.74 | 0.74 | 95 | 1012.6 |
| 20260903220015 | 79 | 221 | 1.0 | 6.0 | 0.04 | 0.74 | 0.74 | 95 | 1012.6 |
| 20260903215511 | 79 | 101 | 1.0 | 3.0 | 0.05 | 0.74 | 0.74 | 95 | 1012.6 |
| 20260903215013 | 79 | 58 | 0.0 | 3.0 | 0.07 | 0.74 | 0.74 | 95 | 1012.9 |
| 20260903214537 | 79 | 178 | 1.0 | 3.0 | 0.08 | 0.74 | 0.74 | 95 | 1013.1 |
| 20260903214022 | 79 | 119 | 1.0 | 3.0 | 0.10 | 0.74 | 0.74 | 95 | 1013.1 |
| 20260903213519 | 79 | 109 | 2.0 | 3.0 | 0.10 | 0.74 | 0.74 | 95 | 1013.2 |
| 20260903213006 | 78 | 105 | 0.0 | 2.0 | 0.11 | 0.74 | 0.74 | 95 | 1013.3 |
| 20260903212507 | 78 | 229 | 1.0 | 2.0 | 0.10 | 0.73 | 0.73 | 95 | 1013.4 |
| 20260903212008 | 78 | 178 | 1.0 | 3.0 | 0.10 | 0.73 | 0.73 | 95 | 1013.5 |
| 20260903211520 | 78 | 15 | 1.0 | 3.0 | 0.09 | 0.72 | 0.72 | 95 | 1013.5 |
| 20260903211016 | 78 | 34 | 0.0 | 2.0 | 0.09 | 0.72 | 0.72 | 95 | 1013.5 |
| 20260903210517 | 78 | 76 | 1.0 | 2.0 | 0.08 | 0.71 | 0.71 | 95 | 1013.4 |
| 20260903210030 | 78 | 78 | 1.0 | 2.0 | 0.07 | 0.70 | 0.70 | 94 | 1013.3 |
| 20260903205517 | 78 | 78 | 2.0 | 3.0 | 0.06 | 0.69 | 0.69 | 94 | 1013.4 |
| 20260903205008 | 77 | 78 | 1.0 | 3.0 | 0.05 | 0.67 | 0.67 | 94 | 1013.4 |
| 20260903204514 | 77 | 77 | 2.0 | 3.0 | 0.06 | 0.66 | 0.66 | 94 | 1013.5 |
| 20260903204012 | 77 | 61 | 0.0 | 3.0 | 0.04 | 0.64 | 0.64 | 94 | 1013.6 |
| 20260903203516 | 77 | 93 | 1.0 | 3.0 | 0.04 | 0.64 | 0.64 | 94 | 1013.6 |
| 20260903203026 | 77 | 270 | 2.0 | 3.0 | 0.04 | 0.63 | 0.63 | 94 | 1013.6 |
| 20260903202514 | 77 | 270 | 2.0 | 3.0 | 0.05 | 0.63 | 0.63 | 94 | 1013.7 |
| 20260903202014 | 77 | 270 | 2.0 | 3.0 | 0.05 | 0.63 | 0.63 | 94 | 1013.8 |
| 20260903201535 | 77 | 270 | 2.0 | 3.0 | 0.05 | 0.63 | 0.63 | 93 | 1013.7 |
| 20260903201007 | 77 | 270 | 2.0 | 3.0 | 0.09 | 0.63 | 0.63 | 93 | 1013.7 |
| 20260903200507 | 77 | 270 | 2.0 | 3.0 | 0.25 | 0.63 | 0.63 | 93 | 1013.7 |
| 20260903200019 | 77 | 270 | 2.0 | 3.0 | 0.41 | 0.63 | 0.63 | 93 | 1013.6 |
| 20260903195511 | 78 | 270 | 2.0 | 3.0 | 0.52 | 0.63 | 0.63 | 93 | 1013.9 |
| 20260903195016 | 78 | 270 | 2.0 | 3.0 | 0.62 | 0.62 | 0.62 | 93 | 1013.9 |
| 20260903194533 | 78 | 270 | 2.0 | 3.0 | 0.60 | 0.60 | 0.60 | 92 | 1013.9 |
| 20260903194018 | 78 | 270 | 2.0 | 3.0 | 0.60 | 0.60 | 0.60 | 92 | 1013.9 |
| 20260903193521 | 78 | 270 | 2.0 | 3.0 | 0.60 | 0.60 | 0.60 | 92 | 1013.9 |
| 20260903193036 | 78 | 270 | 2.0 | 3.0 | 0.58 | 0.58 | 0.58 | 92 | 1014.0 |
| 20260903192511 | 78 | 270 | 2.0 | 3.0 | 0.58 | 0.58 | 0.58 | 91 | 1014.1 |
| 20260903192014 | 78 | 270 | 2.0 | 3.0 | 0.58 | 0.58 | 0.58 | 91 | 1014.3 |
| 20260903191524 | 78 | 270 | 2.0 | 6.0 | 0.58 | 0.58 | 0.58 | 90 | 1014.5 |
| 20260903191018 | 79 | 270 | 2.0 | 6.0 | 0.54 | 0.54 | 0.54 | 89 | 1014.6 |
| 20260903190517 | 80 | 211 | 2.0 | 14.0 | 0.38 | 0.38 | 0.38 | 86 | 1014.3 |
| 20260903190031 | 82 | 136 | 2.0 | 18.0 | 0.22 | 0.22 | 0.22 | 85 | 1013.9 |
| 20260903185520 | 84 | 198 | 9.0 | 18.0 | 0.10 | 0.10 | 0.10 | 82 | 1014.2 |
| 20260903185018 | 87 | 137 | 4.0 | 10.0 | 0.00 | 0.00 | 0.00 | 79 | 1014.3 |
| 20260903184516 | 87 | 190 | 2.0 | 9.0 | 0.00 | 0.00 | 0.00 | 79 | 1013.8 |
| 20260903184010 | 88 | 119 | 2.0 | 7.0 | 0.00 | 0.00 | 0.00 | 79 | 1013.7 |
| 20260903183511 | 88 | 265 | 2.0 | 8.0 | 0.00 | 0.00 | 0.00 | 78 | 1013.7 |
| 20260903183024 | 89 | 93 | 3.0 | 8.0 | 0.00 | 0.00 | 0.00 | 76 | 1013.6 |
| 20260903182514 | 89 | 124 | 4.0 | 8.0 | 0.00 | 0.00 | 0.00 | 76 | 1013.8 |
| 20260903182017 | 89 | 76 | 2.0 | 5.0 | 0.00 | 0.00 | 0.00 | 75 | 1013.8 |
| 20260903181532 | 90 | 65 | 2.0 | 5.0 | 0.00 | 0.00 | 0.00 | 75 | 1013.7 |
| 20260903181020 | 91 | 88 | 1.0 | 4.0 | 0.00 | 0.00 | 0.00 | 76 | 1013.7 |
| 20260903180508 | 91 | 76 | 1.0 | 6.0 | 0.00 | 0.00 | 0.00 | 74 | 1013.7 |
| 20260903180044 | 91 | 71 | 1.0 | 6.0 | 0.00 | 0.00 | 0.00 | 74 | 1013.8 |
| 20260903175514 | 91 | 93 | 2.0 | 5.0 | 0.00 | 0.00 | 0.00 | 74 | 1013.8 |
| 20260903175014 | 92 | 56 | 1.0 | 5.0 | 0.00 | 0.00 | 0.00 | 74 | 1013.8 |
| 20260903174529 | 92 | 282 | 1.0 | 6.0 | 0.00 | 0.00 | 0.00 | 73 | 1014.0 |
| 20260903174019 | 92 | 93 | 1.0 | 7.0 | 0.00 | 0.00 | 0.00 | 73 | 1013.9 |
| 20260903173516 | 93 | 187 | 2.0 | 9.0 | 0.00 | 0.00 | 0.00 | 72 | 1013.8 |
| 20260903173033 | 93 | 178 | 2.0 | 9.0 | 0.00 | 0.00 | 0.00 | 73 | 1013.7 |
| 20260903172511 | 93 | 134 | 2.0 | 6.0 | 0.00 | 0.00 | 0.00 | 74 | 1013.7 |
| 20260903172011 | 93 | 190 | 2.0 | 10.0 | 0.00 | 0.00 | 0.00 | 74 | 1013.7 |
| 20260903171524 | 93 | 257 | 4.0 | 10.0 | 0.00 | 0.00 | 0.00 | 74 | 1013.8 |
| 20260903171017 | 93 | 200 | 3.0 | 9.0 | 0.00 | 0.00 | 0.00 | 75 | 1013.9 |
| 20260903170516 | 93 | 200 | 1.0 | 7.0 | 0.00 | 0.00 | 0.00 | 75 | 1014.0 |
| 20260903170046 | 93 | 93 | 1.0 | 10.0 | 0.00 | 0.00 | 0.00 | 75 | 1014.1 |
| 20260903165518 | 93 | 165 | 2.0 | 10.0 | 0.00 | 0.00 | 0.00 | 76 | 1014.2 |
| 20260903165017 | 93 | 160 | 3.0 | 10.0 | 0.00 | 0.00 | 0.00 | 77 | 1014.3 |
| 20260903164518 | 92 | 161 | 3.0 | 8.0 | 0.00 | 0.00 | 0.00 | 77 | 1014.4 |
| 20260903164017 | 92 | 272 | 3.0 | 10.0 | 0.00 | 0.00 | 0.00 | 77 | 1014.5 |
| 20260903163515 | 91 | 252 | 3.0 | 10.0 | 0.00 | 0.00 | 0.00 | 78 | 1014.5 |
| 20260903163027 | 90 | 243 | 2.0 | 6.0 | 0.00 | 0.00 | 0.00 | 81 | 1014.5 |
| 20260903162514 | 89 | 232 | 2.0 | 6.0 | 0.00 | 0.00 | 0.00 | 81 | 1014.4 |
| 20260903162016 | 89 | 93 | 1.0 | 6.0 | 0.00 | 0.00 | 0.00 | 81 | 1014.4 |
| 20260903161530 | 89 | 298 | 2.0 | 6.0 | 0.00 | 0.00 | 0.00 | 80 | 1014.5 |
| 20260903161018 | 89 | 306 | 2.0 | 8.0 | 0.00 | 0.00 | 0.00 | 80 | 1014.5 |
| 20260903160517 | 89 | 319 | 2.0 | 8.0 | 0.00 | 0.00 | 0.00 | 81 | 1014.5 |
| 20260903160037 | 88 | 211 | 1.0 | 5.0 | 0.00 | 0.00 | 0.00 | 84 | 1014.5 |
| 20260903155514 | 88 | 178 | 2.0 | 8.0 | 0.00 | 0.00 | 0.00 | 83 | 1014.5 |
| 20260903155017 | 88 | 309 | 2.0 | 8.0 | 0.00 | 0.00 | 0.00 | 83 | 1014.3 |
| 20260903154529 | 88 | 236 | 2.0 | 6.0 | 0.00 | 0.00 | 0.00 | 83 | 1014.3 |
| 20260903154022 | 87 | 275 | 2.0 | 6.0 | 0.00 | 0.00 | 0.00 | 83 | 1014.3 |
| 20260903153522 | 88 | 271 | 2.0 | 6.0 | 0.00 | 0.00 | 0.00 | 84 | 1014.4 |
| 20260903153035 | 88 | 144 | 1.0 | 9.0 | 0.00 | 0.00 | 0.00 | 84 | 1014.4 |
| 20260903152510 | 88 | 209 | 4.0 | 9.0 | 0.00 | 0.00 | 0.00 | 84 | 1014.4 |